Krumpe's Donut Alley Rally 5K — Results

Hagerstown, Maryland, United States

1st Place

Ryan Rasco

Krumpe's Donut Alley Rally 5K

15:04

2nd Place

Jonah Smith

Krumpe's Donut Alley Rally 5K

15:36

3rd Place

Ari Snyder

Krumpe's Donut Alley Rally 5K

15:46

# Bib Name Gender Gender Rank Age Group AG Rank Finish Time Pace
101 299 Grace Fling Female F1315 2 23:56 7:42 /mi
102 473 Annie Cooper Female F2029 3 23:58 7:43 /mi
103 669 Robert Tabb Male M4049 11 23:59 7:43 /mi
104 544 Grace Socash Female F2029 4 24:00 7:43 /mi
105 495 Mark Keefer Male M4049 12 24:00 7:43 /mi
106 630 Jeff McCauley Jr. Male M4049 13 24:05 7:45 /mi
107 26 Jessi Dube Female F3039 5 24:06 7:45 /mi
108 257 Sara Church Female F3039 6 24:07 7:46 /mi
109 489 Kristen Haupt Female F2029 5 24:10 7:47 /mi
110 685 H. Pereschuk Male 24:13 7:48 /mi
111 590 Caren Clark Female F5059 5 24:24 7:51 /mi
112 154 Jordi Lamas Male M4049 14 24:32 7:54 /mi
113 260 Kaden Wright Male M1619 20 24:33 7:54 /mi
114 467 Collin Donadieu Male M2029 16 24:39 7:56 /mi
115 317 Christopher W Smith Male M5059 14 24:41 7:57 /mi
116 265 H. Caton Male 24:41 7:57 /mi
117 599 Kathy Cea Female F6069 1 24:42 7:57 /mi
118 239 Karen Martin Female F4049 4 24:45 7:58 /mi
119 665 Antonio Garcia Male M4049 15 24:45 7:58 /mi
120 267 Charles McClurg Male M3039 6 24:46 7:58 /mi
121 661 Zach Schreiber Male M2029 17 24:50 8:00 /mi
122 660 Heather Luciani Female F3039 7 24:50 8:00 /mi
123 482 Aaron Harding Male M4049 16 24:52 8:00 /mi
124 480 Jackson Deshazo Male M1619 21 24:52 8:00 /mi
125 249 Daniel Chen Male M2029 18 24:56 8:01 /mi
126 16 Cody Reynolds Male M3039 7 24:57 8:02 /mi
127 336 Cadence Ferguson Female F1315 3 24:58 8:02 /mi
128 325 Gavin Roche Male M1315 9 24:58 8:02 /mi
129 552 Connor Weaver Male M1619 22 24:59 8:03 /mi
130 620 Erin Helman Female F2029 6 25:00 8:03 /mi
131 478 David Buckwalter Male M1619 23 25:02 8:03 /mi
132 511 Andre Johnson Male M4049 17 25:03 8:04 /mi
133 626 Charles Carpenter Male M3039 8 25:06 8:05 /mi
134 668 Jay Hotaling Male M3039 9 25:10 8:06 /mi
135 525 A. Philp Male 25:12 8:07 /mi
136 312 Jolina Wilson Female F4049 5 25:13 8:07 /mi
137 531 Genny Hammond Female F4049 6 25:15 8:08 /mi
138 572 Mandy Hajel Female F4049 7 25:15 8:08 /mi
139 41 Erin Gedicke Female F3039 8 25:16 8:08 /mi
140 69 Allan Shockey Male M5059 15 25:17 8:08 /mi
141 528 A. Philp Female 25:19 8:09 /mi
142 285 James Fann Male M5059 16 25:19 8:09 /mi
143 295 Ben Robrahn Male M3039 10 25:22 8:10 /mi
144 431 Adam Merrill Male M4049 18 25:27 8:11 /mi
145 401 J. Yonker Male 25:35 8:14 /mi
146 70 Madison Shockey Female F2029 7 25:40 8:16 /mi
147 37 Jonathan Fowler Male M4049 19 25:44 8:17 /mi
148 652 Chase Wesley Male M1315 10 25:57 8:21 /mi
149 529 Katie Manning Female F2029 8 25:58 8:21 /mi
150 645 O. Bender Male 26:00 8:22 /mi

Showing 101–150 of 622 results